Satellite: NOAA-16
Catalog number: 26536
Epoch time:      11208.73282136
Element set:    0381
Inclination:      099.1384 deg
RA of node:       240.0942 deg
Eccentricity:    0.0009702
Arg of perigee:   279.6302 deg
Mean anomaly:     080.3777 deg
Mean motion:   14.12631932 rev/day
Decay rate:      -1.15e-06 rev/day^2
Epoch rev:           55908
Checksum:              296

Satellite: NOAA-17
Catalog number: 27453
Epoch time:      11208.71083474
Element set:    0367
Inclination:      098.3770 deg
RA of node:       246.5558 deg
Eccentricity:    0.0012229
Arg of perigee:   035.3724 deg
Mean anomaly:     324.8270 deg
Mean motion:   14.24295942 rev/day
Decay rate:       1.99e-06 rev/day^2
Epoch rev:           47242
Checksum:              316

Satellite: NOAA-18
Catalog number: 28654
Epoch time:      11208.71792371
Element set:    0847
Inclination:      098.9969 deg
RA of node:       159.9691 deg
Eccentricity:    0.0014422
Arg of perigee:   354.8662 deg
Mean anomaly:     005.2360 deg
Mean motion:   14.11495462 rev/day
Decay rate:       1.39e-06 rev/day^2
Epoch rev:           31864
Checksum:              337

Satellite: NOAA-19
Catalog number: 33591
Epoch time:      11208.72409776
Element set:    0038
Inclination:      098.8265 deg
RA of node:       148.1999 deg
Eccentricity:    0.0013343
Arg of perigee:   219.6498 deg
Mean anomaly:     140.3688 deg
Mean motion:   14.11187660 rev/day
Decay rate:        5.2e-07 rev/day^2
Epoch rev:           12710
Checksum:              322

/EX
SB KEPS @ AMSAT  $ORB11209.M
Orbital Elements  11209.MISC

HR AMSAT ORBITAL ELEMENTS FOR MANNED AND MISCELLANEOUS SATELLITES
FROM WA5QGD FORT WORTH,TX July 28, 2011
Send Subscribe/unsubscribe to KEPS at http://www.amsat.org/mailman/listinfo/kep
BID: ORB11209.M
TO ALL RADIO AMATEURS BT

Satellite: HUBBLE
Catalog number: 20580
Epoch time:      11208.86612112
Element set:     806
Inclination:      028.4694 deg
RA of node:       110.7059 deg
Eccentricity:    0.0003629
Arg of perigee:   194.0668 deg
Mean anomaly:     165.9800 deg
Mean motion:   15.01434462 rev/day
Decay rate:       7.21e-06 rev/day^2
Epoch rev:           96577
Checksum:              290

Satellite: ISS
Catalog number: 25544
Epoch time:      11209.79583769
Element set:     793
Inclination:      051.6416 deg
RA of node:       311.2921 deg
Eccentricity:    0.0011950
Arg of perigee:   016.6266 deg
Mean anomaly:     126.9231 deg
Mean motion:   15.60217330 rev/day
Decay rate:      4.887e-05 rev/day^2
Epoch rev:           72740
Checksum:              298

Satellite: CO-58
Catalog number: 28895
Epoch time:      11208.63397388
Element set:    0934
Inclination:      097.9598 deg
RA of node:       083.4487 deg
Eccentricity:    0.0019020
Arg of perigee:   093.9043 deg
Mean anomaly:     266.4336 deg
Mean motion:   14.60137896 rev/day
Decay rate:       2.15e-06 rev/day^2
Epoch rev:           30614
Checksum:              348

Satellite: FALCON
Catalog number: 30776
Epoch time:      11209.84466032
Element set:     137
Inclination:      035.4331 deg
RA of node:       093.6543 deg
Eccentricity:    0.0000932
Arg of perigee:   023.7106 deg
Mean anomaly:     336.3633 deg
Mean motion:   15.04779051 rev/day
Decay rate:      1.276e-05 rev/day^2
Epoch rev:           24132
Checksum:              264

Satellite: MAST
Catalog number: 31126
Epoch time:      11208.91949702
Element set:    0220
Inclination:      097.8938 deg
RA of node:       233.8403 deg
Eccentricity:    0.0095537
Arg of perigee:   044.3034 deg
Mean anomaly:     316.5779 deg
Mean motion:   14.53777165 rev/day
Decay rate:       2.96e-06 rev/day^2
Epoch rev:           22700
Checksum:              305

Satellite: CAPE1
Catalog number: 31130
Epoch time:      11209.49477960
Element set:     234
Inclination:      097.8988 deg
RA of node:       231.0892 deg
Eccentricity:    0.0103283
Arg of perigee:   053.3574 deg
Mean anomaly:     307.7068 deg
Mean motion:   14.52429010 rev/day
Decay rate:       2.72e-06 rev/day^2
Epoch rev:           22663
Checksum:              293

Satellite: COMPASS
Catalog number: 32787
Epoch time:      11209.65319465
Element set:      50
Inclination:      097.8453 deg
RA of node:       272.6939 deg
Eccentricity:    0.0016615
Arg of perigee:   043.3728 deg
Mean anomaly:     316.8795 deg
Mean motion:   14.82510222 rev/day
Decay rate:       2.96e-06 rev/day^2
Epoch rev:           17570
Checksum:              316

Satellite: AAUSAT2
Catalog number: 32788
Epoch time:      11208.66680521
Element set:    0042
Inclination:      097.8456 deg
RA of node:       271.9632 deg
Eccentricity:    0.0016043
Arg of perigee:   048.7169 deg
Mean anomaly:     311.5456 deg
Mean motion:   14.82699543 rev/day
Decay rate:       2.77e-06 rev/day^2
Epoch rev:           17557
Checksum:              326

Satellite: DO-64
Catalog number: 32789
Epoch time:      11208.73031391
Element set:    0058
Inclination:      097.8553 deg
RA of node:       273.1088 deg
Eccentricity:    0.0016217
Arg of perigee:   045.7981 deg
Mean anomaly:     314.4560 deg
Mean motion:   14.83216409 rev/day
Decay rate:       7.53e-06 rev/day^2
Epoch rev:           17559
Checksum:              321

